[[{"header":{"parameterUnit":"m.s-1","parameterCategory":1,"la1":30.2991,"la2":30.254,"lo1":-89.0895,"lo2":-89.0444,"dy":0.0017,"dx":0.0017,"nx":28,"ny":28,"refTime":"2025-12-19T09:00:00:Z","depth":0,"parameterNumber":2,"parameterNumberName":"U-component_of_WINDS"},"data":[0,0,0,0,0,0,0,0,0,0,0,0,0,0,0,0,0,0,0,0,0,0,0,0,0,0,0,0,0,0,0,0,0,0,0,0,0,0,0,0,0,0,0,0,0,0,0,0,0,0,0,0,0,0,0,0,0,0,0.3877,0.3877,0,0.3886,0.3886,0.3886,0.3906,0.3906,0.3907,0.3907,0.3915,0.3915,0.3914,0,0,0,0,0,0,0,0,0,0,0,0,0,0.3877,0.3877,0.3877,0.3877,0.3877,0.3886,0.3886,0.3886,0.3906,0.3906,0.3907,0.3907,0.3915,0.3915,0.3914,0,0,0,0,0,0,0,0,0,0,0,0,0,0.388,0.3877,0.3877,0.3888,0.3889,0.3886,0.3886,0.3886,0.3906,0.3906,0.3907,0.3908,0.3915,0.3915,0.3914,0.39,0,0,0.3913,0.3913,0,0,0,0,0,0,0,0,0.388,0.388,0.3886,0.3887,0.3889,0.3895,0.3889,0.3891,0.3906,0.3899,0.3907,0.3908,0.3908,0.3908,0.3908,0.39,0.3901,0.3913,0.3913,0.3913,0.3913,0,0,0,0,0,0,0,0.388,0.388,0.388,0.3887,0.3888,0.3893,0.3894,0.3889,0.39,0.39,0.3902,0.3902,0.3908,0.3908,0.3909,0.3901,0.3913,0.3913,0.3913,0.3913,0.3881,0.3881,0,0,0,0,0,0,0.3878,0.388,0.388,0.3881,0.3886,0.3892,0.3893,0.3893,0.39,0.3902,0.3902,0.3903,0.3909,0.3909,0.3909,0.3892,0.3913,0.3913,0.3913,0.3882,0.3881,0.3881,0,0,0,0,0,0,0.3878,0.3878,0.388,0.3881,0.3881,0.3891,0.389,0.3892,0.3892,0.3901,0.3903,0.39,0.3909,0.3909,0.3902,0.3893,0.3913,0.3912,0.3883,0.3882,0.3881,0.3859,0,0,0,0,0,0,0.3878,0.3878,0.3873,0.388,0.3881,0.3873,0.389,0.3892,0.3892,0.3894,0.39,0.3902,0.391,0.3902,0.3902,0.3893,0.3912,0.3884,0.3882,0.3881,0.386,0.3857,0.3854,0,0,0,0,0,0.3878,0.3866,0.3872,0.3872,0.3875,0.3872,0.3873,0.3882,0.3891,0.3886,0.3892,0.3901,0.3894,0.3902,0.3901,0.3892,0.3884,0.3883,0.3881,0.3862,0.3858,0.3855,0,0,0,0,0,0,0.3856,0.3867,0.3874,0.3864,0.3867,0.3876,0.3869,0.3878,0.3878,0.388,0.3892,0.3893,0.3884,0.3888,0.3895,0.3878,0.3891,0.3889,0.3876,0.3872,0.387,0.3868,0.3912,0,0,0,0,0,0.385,0.3847,0.3857,0.3847,0.3849,0.3859,0.3858,0.3865,0.3869,0.387,0.3875,0.3878,0.3876,0.3875,0.3874,0.3862,0.3863,0.3855,0.3852,0.385,0.3847,0.3841,0.3837,0.3876,0.3876,0.3876,0,0,0.3837,0.3843,0.3841,0.3843,0.3846,0.3843,0.3859,0.3855,0.3853,0.3869,0.3863,0.3867,0.3871,0.3861,0.3857,0.3863,0.3838,0.3848,0.3846,0.3845,0.3839,0.3835,0.3832,0.3875,0.3875,0.3875,0,0,0.3812,0.3817,0.3809,0.3812,0.3817,0.3824,0.3822,0.383,0.3833,0.3827,0.3839,0.3837,0.3834,0.3836,0.3837,0.3814,0.3822,0.3813,0.3797,0.3791,0.3788,0.3785,0.3776,0.3773,0.3812,0.3811,0.3811,0,0.3796,0.3792,0.3804,0.3799,0.3799,0.3815,0.3807,0.381,0.3814,0.3814,0.3821,0.3818,0.3822,0.3812,0.3807,0.3807,0.3805,0.3812,0.3787,0.3785,0.3782,0.3774,0.3771,0.381,0.381,0.3811,0.3811,0,0.3771,0.3768,0.3761,0.3765,0.3765,0.3758,0.3769,0.3768,0.3776,0.3782,0.3776,0.3781,0.3781,0.378,0.3787,0.3772,0.3776,0.3785,0.3798,0.3777,0.377,0.3766,0.3808,0.3809,0.3809,0.381,0,0,0.373,0.3742,0.3739,0.3742,0.3749,0.3746,0.3741,0.3742,0.374,0.3743,0.3738,0.3736,0.3745,0.3746,0.3754,0.3748,0.3729,0.3758,0.3759,0.3752,0.3712,0.3704,0.37,0.3736,0.3735,0.3735,0.3711,0,0.3706,0.3697,0.3709,0.3697,0.3694,0.371,0.3705,0.3709,0.3715,0.3713,0.372,0.3718,0.373,0.3731,0.3726,0.3732,0.3721,0.3735,0.3731,0.373,0.3728,0.3696,0.3687,0.3664,0.3708,0.3708,0.3707,0,0.3676,0.3678,0.3666,0.3675,0.3674,0.367,0.3671,0.367,0.3675,0.368,0.3681,0.3691,0.3686,0.37,0.3693,0.3702,0.3701,0.3704,0.3703,0.3702,0.3716,0.3693,0.3657,0.3653,0.3703,0.3703,0.3704,0,0.3647,0.3647,0.364,0.3641,0.3651,0.3647,0.3651,0.3657,0.3657,0.3659,0.3659,0.366,0.366,0.3661,0.367,0.368,0.3662,0.3677,0.3665,0.3665,0.3659,0.3659,0.3622,0.3661,0.3661,0.3661,0.3661,0,0.3618,0.361,0.3626,0.3622,0.3614,0.3627,0.3618,0.3624,0.3629,0.3625,0.364,0.3636,0.365,0.3648,0.3656,0.3649,0.3649,0.3652,0.3654,0.365,0.365,0.3649,0.365,0.366,0.3661,0.3661,0.3661,0,0.3582,0.3594,0.3587,0.3597,0.36,0.3593,0.3602,0.3598,0.3605,0.3601,0.3601,0.3612,0.3611,0.3621,0.3622,0.3627,0.3616,0.3621,0.3614,0.3615,0.3603,0.3603,0.3562,0.3557,0.3601,0.36,0.36,0,0.3562,0.3557,0.3567,0.3566,0.3569,0.3567,0.3568,0.3581,0.3581,0.3586,0.3582,0.3582,0.3582,0.3579,0.3587,0.3588,0.3592,0.3578,0.3592,0.3588,0.3591,0.359,0.359,0.3574,0.3574,0.3574,0.3573,0,0.3525,0.3531,0.3531,0.3533,0.3534,0.3536,0.3539,0.3537,0.3552,0.3551,0.355,0.355,0.3551,0.355,0.3553,0.3557,0.3567,0.3569,0.3566,0.3561,0.3557,0.3558,0.3604,0.3569,0.357,0.357,0.357,0.357,0.3496,0.3492,0.3498,0.3498,0.3502,0.3505,0.3502,0.3509,0.3509,0.3511,0.3519,0.3516,0.3522,0.3526,0.3529,0.3527,0.3534,0.353,0.3529,0.3527,0.3525,0.3559,0.3528,0.3528,0.3528,0.3528,0.3528,0,0.3459,0.3464,0.3464,0.3468,0.3468,0.3479,0.3483,0.3482,0.348,0.3484,0.3485,0.3484,0.3484,0.3492,0.3493,0.349,0.3495,0.349,0.3489,0.349,0.3519,0.3521,0.3486,0.3486,0.3486,0.3486,0.3486,0.3486,0.3439,0.3432,0.3439,0.3435,0.344,0.3438,0.3439,0.3442,0.3446,0.3444,0.3444,0.345,0.3456,0.3458,0.3458,0.3461,0.346,0.3453,0.3457,0.3484,0.3488,0.3492,0.3493,0.3453,0.3453,0.3428,0.3428,0.3427]},{"header":{"parameterUnit":"m.s-1","parameterCategory":1,"la1":30.2991,"la2":30.254,"lo1":-89.0895,"lo2":-89.0444,"dy":0.0017,"dx":0.0017,"nx":28,"ny":28,"refTime":"2025-12-19T09:00:00:Z","depth":0,"parameterNumber":3,"parameterNumberName":"V-component_of_WINDS"},"data":[0,0,0,0,0,0,0,0,0,0,0,0,0,0,0,0,0,0,0,0,0,0,0,0,0,0,0,0,0,0,0,0,0,0,0,0,0,0,0,0,0,0,0,0,0,0,0,0,0,0,0,0,0,0,0,0,0,0,-4.5169,-4.5169,0,-4.5227,-4.5228,-4.5229,-4.5186,-4.5184,-4.5182,-4.518,-4.5238,-4.5241,-4.5244,0,0,0,0,0,0,0,0,0,0,0,0,0,-4.5018,-4.5021,-4.5168,-4.5169,-4.517,-4.5227,-4.5228,-4.5229,-4.5186,-4.5184,-4.5182,-4.518,-4.5237,-4.5241,-4.5245,0,0,0,0,0,0,0,0,0,0,0,0,0,-4.5081,-4.5022,-4.5168,-4.5156,-4.5155,-4.5227,-4.5228,-4.5229,-4.5187,-4.5184,-4.5181,-4.5179,-4.5235,-4.524,-4.5245,-4.5332,0,0,-4.526,-4.5262,0,0,0,0,0,0,0,0,-4.5077,-4.5086,-4.5157,-4.5157,-4.5156,-4.5196,-4.5196,-4.5263,-4.5187,-4.5175,-4.518,-4.5177,-4.5226,-4.5232,-4.5249,-4.5334,-4.5337,-4.5261,-4.5264,-4.5266,-4.5267,0,0,0,0,0,0,0,-4.5073,-4.5084,-4.5192,-4.5158,-4.5158,-4.5147,-4.5152,-4.5208,-4.5215,-4.5176,-4.5173,-4.518,-4.5225,-4.5244,-4.525,-4.5338,-4.526,-4.5265,-4.5268,-4.527,-4.5499,-4.5502,0,0,0,0,0,0,-4.507,-4.508,-4.519,-4.5193,-4.5109,-4.5152,-4.5158,-4.5186,-4.5215,-4.5216,-4.5183,-4.5178,-4.5237,-4.5244,-4.5252,-4.5357,-4.5266,-4.527,-4.5273,-4.5496,-4.55,-4.5503,0,0,0,0,0,0,-4.5067,-4.508,-4.5187,-4.5136,-4.5149,-4.5157,-4.5189,-4.5189,-4.5208,-4.522,-4.5221,-4.5201,-4.5235,-4.5245,-4.5313,-4.5358,-4.5272,-4.5277,-4.5492,-4.5497,-4.5502,-4.5566,0,0,0,0,0,0,-4.5063,-4.5079,-4.5113,-4.5137,-4.5152,-4.5248,-4.5192,-4.5192,-4.5217,-4.5211,-4.5237,-4.5239,-4.5234,-4.5306,-4.5318,-4.5363,-4.5281,-4.5488,-4.5494,-4.55,-4.556,-4.5572,-4.5583,0,0,0,0,0,-4.5058,-4.5127,-4.5115,-4.5128,-4.5194,-4.5251,-4.5259,-4.5253,-4.522,-4.5254,-4.5262,-4.5238,-4.5351,-4.5313,-4.5326,-4.5374,-4.5485,-4.5493,-4.55,-4.5555,-4.557,-4.5583,0,0,0,0,0,0,-4.5106,-4.513,-4.5116,-4.5196,-4.5222,-4.5244,-4.5286,-4.5269,-4.5303,-4.5297,-4.5286,-4.5293,-4.5365,-4.5375,-4.5333,-4.546,-4.5413,-4.5423,-4.545,-4.5465,-4.5476,-4.5473,-4.5285,0,0,0,0,0,-4.5127,-4.5172,-4.519,-4.5259,-4.5272,-4.5277,-4.5302,-4.5295,-4.5321,-4.5331,-4.5344,-4.5369,-4.5411,-4.5438,-4.5477,-4.5561,-4.5567,-4.56,-4.5612,-4.5621,-4.563,-4.5678,-4.5693,-4.5526,-4.5526,-4.5526,0,0,-4.5169,-4.5187,-4.5216,-4.5269,-4.5288,-4.5335,-4.5286,-4.5337,-4.5372,-4.5338,-4.5404,-4.5415,-4.5442,-4.552,-4.5554,-4.5531,-4.5678,-4.563,-4.5638,-4.5642,-4.5687,-4.5703,-4.5717,-4.5531,-4.553,-4.553,0,0,-4.5269,-4.5288,-4.5348,-4.5369,-4.5399,-4.5402,-4.5417,-4.5441,-4.5448,-4.5514,-4.549,-4.553,-4.5601,-4.5623,-4.5643,-4.5754,-4.5734,-4.5767,-4.5828,-4.5874,-4.5887,-4.5899,-4.594,-4.5955,-4.5776,-4.5776,-4.5776,0,-4.5318,-4.5388,-4.5381,-4.5435,-4.5459,-4.5432,-4.5494,-4.5513,-4.5554,-4.5572,-4.5545,-4.5636,-4.5652,-4.5735,-4.5762,-4.5779,-4.5796,-4.5764,-4.5886,-4.5897,-4.5908,-4.5948,-4.5963,-4.578,-4.5779,-4.5779,-4.5779,0,-4.5447,-4.5496,-4.5541,-4.5584,-4.5613,-4.567,-4.5671,-4.5702,-4.5692,-4.5698,-4.5767,-4.5786,-4.5829,-4.5847,-4.5838,-4.593,-4.5915,-4.5887,-4.584,-4.5928,-4.5965,-4.598,-4.5785,-4.5784,-4.5783,-4.5782,0,0,-4.558,-4.5619,-4.5635,-4.5655,-4.5687,-4.5725,-4.5781,-4.5825,-4.5852,-4.5881,-4.5929,-4.599,-4.5966,-4.5989,-4.5982,-4.6022,-4.6112,-4.599,-4.5991,-4.6013,-4.6216,-4.6237,-4.6255,-4.6098,-4.61,-4.6103,-4.6214,0,-4.5684,-4.5783,-4.5779,-4.5872,-4.5919,-4.5894,-4.5943,-4.5968,-4.5975,-4.6015,-4.6022,-4.6067,-4.603,-4.6045,-4.6083,-4.6092,-4.6152,-4.6084,-4.6142,-4.6145,-4.6138,-4.6274,-4.6296,-4.64,-4.6228,-4.623,-4.6232,0,-4.5818,-4.5855,-4.5953,-4.598,-4.5999,-4.6044,-4.6085,-4.6123,-4.6151,-4.6153,-4.618,-4.6167,-4.6224,-4.6175,-4.6254,-4.6208,-4.6231,-4.6239,-4.6243,-4.625,-4.6195,-4.6285,-4.6433,-4.645,-4.6254,-4.6253,-4.6251,0,-4.5908,-4.5981,-4.605,-4.6067,-4.61,-4.6132,-4.6147,-4.6173,-4.62,-4.6235,-4.6253,-4.6293,-4.6316,-4.6347,-4.6345,-4.6309,-4.6426,-4.6376,-4.6431,-4.6431,-4.6457,-4.6456,-4.6613,-4.647,-4.647,-4.6469,-4.6469,0,-4.6025,-4.6087,-4.6091,-4.6133,-4.6202,-4.6196,-4.6264,-4.6276,-4.6299,-4.6343,-4.6323,-4.6365,-4.636,-4.6402,-4.64,-4.6467,-4.6477,-4.648,-4.648,-4.6483,-4.6483,-4.65,-4.6493,-4.6473,-4.6472,-4.6472,-4.6471,0,-4.6137,-4.6142,-4.6216,-4.6242,-4.625,-4.63,-4.6322,-4.6362,-4.6368,-4.6425,-4.6437,-4.6446,-4.6495,-4.6496,-4.6551,-4.655,-4.6632,-4.6622,-4.6624,-4.6622,-4.6677,-4.6673,-4.6851,-4.6875,-4.6715,-4.6717,-4.6718,0,-4.6213,-4.626,-4.6292,-4.6321,-4.6339,-4.6385,-4.6414,-4.641,-4.644,-4.6477,-4.6513,-4.656,-4.6598,-4.6677,-4.6688,-4.673,-4.6722,-4.6782,-4.6728,-4.6731,-4.6725,-4.6723,-4.6729,-4.6793,-4.6794,-4.6796,-4.6797,0,-4.6347,-4.6348,-4.639,-4.6434,-4.6468,-4.6502,-4.6533,-4.6558,-4.6558,-4.6592,-4.6643,-4.6672,-4.673,-4.6777,-4.6819,-4.6833,-4.6816,-4.6814,-4.6829,-4.6834,-4.6833,-4.6836,-4.6654,-4.681,-4.6808,-4.6808,-4.6807,-4.6806,-4.6445,-4.6486,-4.6516,-4.6564,-4.6588,-4.6618,-4.6658,-4.6669,-4.6712,-4.676,-4.6754,-4.6811,-4.6839,-4.6893,-4.6912,-4.6956,-4.6935,-4.6956,-4.6962,-4.6968,-4.6975,-4.6825,-4.6963,-4.6962,-4.6962,-4.6962,-4.6961,0,-4.6579,-4.6598,-4.6642,-4.6688,-4.6726,-4.6707,-4.674,-4.6773,-4.6824,-4.6852,-4.689,-4.6949,-4.6995,-4.7011,-4.7055,-4.7088,-4.7081,-4.71,-4.7098,-4.7102,-4.699,-4.6973,-4.7105,-4.7105,-4.7105,-4.7105,-4.7105,-4.7105,-4.6654,-4.6725,-4.6729,-4.6811,-4.6829,-4.6885,-4.6907,-4.6935,-4.6957,-4.7025,-4.7064,-4.7074,-4.7097,-4.7144,-4.7185,-4.7189,-4.7207,-4.723,-4.723,-4.7124,-4.711,-4.7096,-4.7081,-4.7233,-4.7233,-4.7339,-4.734,-4.7341]}]]